STARLINK-4304 (53414 NORAD) Tracking and Keplerian Element Data

This shows tracking and keplerian element data for the satellite.

Feedback or suggestion? Click here.




ElementValue
Catalog53414
NameSTARLINK-4304
Epoch Orbit1628
Epoch Day324.92046444
Epoch Year2022
RAAN122.5353
Inclination53.2159
Eccentricity0.0001653
Argument of Perigee68.798
Mean Anonmoly291.3189
Mean Motion15.08847917
Decay Rate2.358E-05
L11 53414U 22097AC 22324.92046444 .00002358 00000+0 16615-3 0 9992
L22 53414 53.2159 122.5353 0001653 68.7980 291.3189 15.08847917 16288



Live tracking and technical data element details for STARLINK-4304 (NORAD 53414). STARLINK-4304 can be tracked NOW for your location showing map with azimuth and elevation plus other details from your city location.







IsCatalogInMostPopularTable: catalog: 53414, numindb: 4
Update: records affected: 1



GetName: 53414 STARLINK-4304

Hit Count: updated at: Thu, 08 Dec 2022 19:59:53 GMT